Flag for U.S.A. Weather past 2 weeks in South Bend, Indiana, U.S.A.

Now
44 °F

Sunny.


Feels Like: 39 °F
Forecast: 37 / 62 °F
Wind: 10 mph from South

Location: Michiana Regional Airport


UV Index: 0 (Low)

Visibility: 10 mi


Pressure: 30.24 "Hg

Humidity: 47%

Dew point: 25 °F

Location of South BendLocation

Historic Weather in South Bend

°F

South Bend temperature yesterday

Maximum temperature yesterday: 50 °F (at 5:54 PM)
Minimum temperature yesterday: 27 °F (at 3:54 AM)
Average temperature yesterday: 39 °F

Past Weeks' High & Low Weather Summary

 TemperatureHumidityPressure
High76 °F (Apr 12, 5:54 PM)93% (Apr 4, 12:54 AM)30.40 "Hg (Apr 4, 12:54 AM)
Low27 °F (Apr 16, 3:54 AM)16% (Apr 11, 3:54 PM)29.40 "Hg (Apr 14, 5:54 AM)
Average46 °F59%29.93 "Hg
* Reported Apr 2 7:54 AM — Apr 17 7:54 AM, South Bend, Weather by CustomWeather, © 2014

Note: Actual official high and low records may vary slightly from our data, if they occured in-between our weather recording intervals... More about our weather records

Advertising

Historic Weather Conditions — Data for Previous 24 hours

 ConditionsComfort  
Time TempWeatherWind HumidityBarometerVisibility
7:54 AM
Apr 17
39 °FClear.12 mph55%30.24 "Hg10 mi
6:54 AM38 °FClear.10 mph58%30.24 "Hg10 mi
3:54 AM40 °FClear.14 mph53%30.24 "Hg10 mi
2:54 AM41 °FClear.14 mph51%30.25 "Hg10 mi
1:54 AM42 °FClear.14 mph47%30.26 "Hg10 mi
12:54 AM42 °FClear.18 mph49%30.24 "Hg10 mi
11:54 PM
Apr 16
43 °FClear.16 mph47%30.24 "Hg10 mi
10:54 PM43 °FClear.13 mph47%30.24 "Hg10 mi
8:54 PM45 °FSunny.16 mph40%30.24 "Hg10 mi
7:54 PM47 °FSunny.17 mph36%30.24 "Hg10 mi
6:54 PM49 °FSunny.21 mph33%30.24 "Hg10 mi
5:54 PM50 °FSunny.20 mph30%30.25 "Hg10 mi
4:54 PM49 °FSunny.20 mph32%30.28 "Hg10 mi
3:54 PM49 °FSunny.20 mph31%30.30 "Hg10 mi
2:54 PM48 °FSunny.18 mph32%30.33 "Hg10 mi
1:54 PM45 °FSunny.16 mph34%30.35 "Hg10 mi
12:54 PM45 °FSunny.13 mph35%30.37 "Hg10 mi
11:54 AM42 °FSunny.16 mph38%30.39 "Hg10 mi
10:54 AM40 °FSunny.14 mph41%30.39 "Hg10 mi
9:54 AM36 °FSunny.12 mph46%30.40 "Hg10 mi
Weather by CustomWeather, © 2014

See weather overview